This is the latest recevied weather packets stored in our database for station/object HB9EFX-14. If no packets are shown the sender has not sent any weather packets the latest 1 day(s).
| Time | Temp. | Humidity | Pressure | Rain* | Wind** | Luminosity | Snow |
|---|---|---|---|---|---|---|---|
| 1777967115 | 11.11° C | - | - | 0 mm | 1.34 m/s, 62° | - | - |
| 1777966515 | 11.11° C | - | - | 0 mm | 0.89 m/s, 9° | - | - |
| 1777965912 | 10.56° C | - | - | 0 mm | 0.89 m/s, 125° | - | - |
| 1777965312 | 10.56° C | - | - | 0 mm | 0 m/s | - | - |
| 1777964712 | 10.56° C | - | - | 0 mm | 0.89 m/s, 95° | - | - |
| 1777964112 | 10.56° C | - | - | 0 mm | 0.89 m/s, 36° | - | - |
| 1777963512 | 10.56° C | - | - | 0 mm | 0.45 m/s, 250° | - | - |
| 1777962909 | 10.56° C | - | - | 0 mm | 0.45 m/s, 273° | - | - |
| 1777962310 | 10.56° C | - | - | 0 mm | 2.24 m/s, 100° | - | - |
| 1777961709 | 10.56° C | - | - | 0 mm | 0.89 m/s, 89° | - | - |
| 1777961109 | 10° C | - | - | 0 mm | 1.34 m/s, 47° | - | - |
| 1777960509 | 10° C | - | - | 0 mm | 0.89 m/s, 96° | - | - |
| 1777959905 | 9.44° C | - | - | 0 mm | 1.34 m/s, 101° | - | - |
| 1777959305 | 8.89° C | - | - | 0 mm | 1.34 m/s, 93° | - | - |
| 1777958706 | 8.89° C | - | - | 0 mm | 1.34 m/s, 60° | - | - |
| 1777958106 | 8.33° C | - | - | 0 mm | 1.79 m/s, 94° | - | - |
| 1777957505 | 8.33° C | - | - | 0 mm | 2.24 m/s, 99° | - | - |
| 1777956901 | 7.78° C | - | - | 0 mm | 2.24 m/s, 96° | - | - |
| 1777956301 | 7.78° C | - | - | 0 mm | 1.34 m/s, 92° | - | - |
| 1777955702 | 7.78° C | - | - | 0 mm | 1.79 m/s, 109° | - | - |
| 1777955101 | 7.78° C | - | - | 0 mm | 1.34 m/s, 99° | - | - |
| 1777954501 | 7.22° C | - | - | 0 mm | 2.68 m/s, 99° | - | - |
| 1777953899 | 7.22° C | - | - | 0 mm | 1.34 m/s, 83° | - | - |
| 1777953299 | 7.22° C | - | - | 0 mm | 1.79 m/s, 69° | - | - |
| 1777952699 | 6.67° C | - | - | 0 mm | 2.24 m/s, 107° | - | - |
* Rain latest hour (hover to see other rain measurements)
** Current wind speed in m/s (hover to see current wind gust speed)